Regional Weather Roundup
Issued by NWS Sioux Falls, SD

Home | Current Version | Previous Version | Graphics & Text | Print | Product List | Glossary On
Versions: 1 2 3 4 5 6 7 8 9 10 11 12 13 14 15 16 17 18 19 20 21 22 23 24 25 26 27 28 29 30 31 32 33 34 35 36 37 38 39 40 41 42 43 44 45 46 47 48 49 50
000
ASUS43 KFSD 121910
RWRFSD

WEATHER ROUNDUP FOR SE SOUTH DAKOTA/SW MINNESOTA/NW IOWA
NATIONAL WEATHER SERVICE SIOUX FALLS SD
100 PM CST TUE DEC 12 2017

NOTE: "FAIR" INDICATES FEW OR NO CLOUDS BELOW 12,000 FEET WITH NO
SIGNIFICANT WEATHER AND OR OBSTRUCTIONS TO VISIBILITY.


SDZ038>040-050-052>070-122000-
SOUTHEAST SOUTH DAKOTA

CITY           SKY/WX    TMP DP  RH WIND       PRES   REMARKS
BROOKINGS      CLOUDY    36  27  69 W15       30.01F
CHAMBERLAIN    SUNNY     48  28  46 SW9       30.05F
HURON          MOSUNNY   44  29  55 MISG      30.02F
MADISON        FAIR      36  34  93 SW14      30.02F
MITCHELL       CLOUDY    41  30  65 SW12      30.07F
SIOUX FALLS    CLOUDY    35  28  75 SW9       30.07F WCI  28
WINNER         FAIR      54  19  25 W13       30.05F
YANKTON        SUNNY     40  28  62 SW9       30.10F
$$

MNZ071-072-080-081-089-090-097-098-122000-
SOUTHWEST MINNESOTA

CITY           SKY/WX    TMP DP  RH WIND       PRES   REMARKS
FAIRMONT       CLOUDY    30  22  72 W14       30.07F WCI  19
JACKSON        CLOUDY    30  21  69 MISG      30.06F
LUVERNE        CLOUDY    32  25  74 SW15      30.08F WCI  22
MARSHALL       CLOUDY    35  26  69 W17       30.02F WCI  25
MONTEVIDEO     CLOUDY    37  28  70 W10       29.99F
PIPESTONE      CLOUDY    34  27  75 W15       30.02F WCI  24
REDWOOD FALLS  CLOUDY    34  24  67 W12       30.03F WCI  25
TRACY          CLOUDY    33  27  79 SW15      30.02F WCI  23
WINDOM           N/A     30  18  59 SW14      30.04F WCI  20
WORTHINGTON    MOSUNNY   30  24  78 SW16      30.04F WCI  19
$$

IAZ001>003-012>014-020>022-031-032-NEZ013-014-SDZ071-122000-
NORTHWEST IOWA

CITY           SKY/WX    TMP DP  RH WIND       PRES   REMARKS
CHEROKEE       CLOUDY    34  23  64 W7        30.13F WCI  28
DENISON        CLOUDY    32  18  55 SW10      30.17F WCI  24
ESTHERVILLE    CLOUDY    29  21  72 W15       30.07F WCI  18
LE MARS        MOSUNNY   36  25  64 S9        30.12F
ORANGE CITY    SUNNY     36  27  69 W13       30.10F
SHELDON        CLOUDY    32  25  74 SW13      30.08F WCI  22
SIOUX CITY     MOSUNNY   37  26  64 SW9       30.14F
SPENCER        CLOUDY    31  20  63 SW14      30.09F WCI  21
STORM LAKE     CLOUDY    30  18  59 W15       30.12F WCI  19
$$

ABBREVIATIONS USED IN REMARKS
   TC - TEMPERATURE IN CELSIUS
  WCI - WIND CHILL INDEX
   HX - HEAT INDEX
  VSB - VISIBILITY




USA.gov is the U.S. government's official web portal to all federal, state and local government web resources and services.